| time (UTC) | temp F | wind direction | speed knots | gust knots | rain 1hr in | rain 24hr in | rain mn in | humidity % | barometer mb |
| 20260901224005 | 88 | 0 | 0.0 | 0.0 | 0.00 | 0.00 | 0.00 | 62 | 927.5 |
| 20260901223505 | 88 | 0 | 0.0 | 0.0 | 0.00 | 0.00 | 0.00 | 63 | 927.3 |
| 20260901223006 | 88 | 0 | 0.0 | 0.0 | 0.00 | 0.00 | 0.00 | 60 | 928.0 |
| 20260901221504 | 91 | 0 | 0.0 | 0.0 | 0.00 | 0.00 | 0.00 | 58 | 928.3 |
| 20260901221005 | 91 | 0 | 0.0 | 0.0 | 0.00 | 0.00 | 0.00 | 55 | 928.9 |
| 20260901220504 | 91 | 0 | 0.0 | 0.0 | 0.00 | 0.00 | 0.00 | 56 | 928.7 |
| 20260901214505 | 87 | 0 | 0.0 | 0.0 | 0.00 | 0.00 | 0.00 | 63 | 927.3 |
| 20260901214004 | 86 | 0 | 0.0 | 0.0 | 0.00 | 0.00 | 0.00 | 64 | 927.0 |
| 20260901213505 | 85 | 0 | 0.0 | 0.0 | 0.00 | 0.00 | 0.00 | 66 | 926.0 |
| 20260901213005 | 85 | 0 | 0.0 | 0.0 | 0.00 | 0.00 | 0.00 | 68 | 925.7 |
| 20260901211504 | 87 | 0 | 0.0 | 0.0 | 0.00 | 0.01 | 0.00 | 58 | 928.8 |
| 20260901211004 | 87 | 0 | 0.0 | 0.0 | 0.00 | 0.01 | 0.00 | 56 | 928.9 |
| 20260901210505 | 87 | 0 | 0.0 | 0.0 | 0.00 | 0.02 | 0.00 | 60 | 928.8 |
| 20260901204505 | 88 | 0 | 0.0 | 0.0 | 0.00 | 0.10 | 0.00 | 57 | 928.8 |
| 20260901204005 | 87 | 0 | 0.0 | 0.0 | 0.00 | 0.12 | 0.00 | 57 | 929.2 |
| 20260901203504 | 88 | 0 | 0.0 | 0.0 | 0.00 | 0.16 | 0.00 | 54 | 929.4 |
| 20260901203004 | 88 | 0 | 0.0 | 0.0 | 0.00 | 0.22 | 0.00 | 54 | 929.2 |
| 20260901201504 | 86 | 0 | 0.0 | 0.0 | 0.00 | 0.31 | 0.00 | 62 | 927.6 |
| 20260901200504 | 85 | 0 | 0.0 | 0.0 | 0.00 | 0.31 | 0.00 | 66 | 926.8 |
| 20260901194504 | 86 | 0 | 0.0 | 0.0 | 0.00 | 0.31 | 0.00 | 59 | 928.8 |
| 20260901194004 | 87 | 0 | 0.0 | 0.0 | 0.00 | 0.31 | 0.00 | 54 | 929.6 |
| 20260901193004 | 87 | 0 | 0.0 | 0.0 | 0.00 | 0.31 | 0.00 | 56 | 929.0 |
| 20260901191504 | 87 | 0 | 0.0 | 0.0 | 0.00 | 0.31 | 0.00 | 56 | 929.3 |
| 20260901191005 | 87 | 0 | 0.0 | 0.0 | 0.00 | 0.31 | 0.00 | 54 | 929.5 |
| 20260901190505 | 87 | 0 | 0.0 | 0.0 | 0.00 | 0.31 | 0.00 | 57 | 929.4 |
| 20260901190004 | 87 | 0 | 0.0 | 0.0 | 0.00 | 0.31 | 0.00 | 61 | 928.9 |
| 20260901184504 | 87 | 0 | 0.0 | 0.0 | 0.00 | 0.31 | 0.00 | 58 | 928.9 |
| 20260901184004 | 86 | 0 | 0.0 | 0.0 | 0.00 | 0.31 | 0.00 | 58 | 928.9 |
| 20260901183504 | 86 | 0 | 0.0 | 0.0 | 0.00 | 0.31 | 0.00 | 59 | 928.4 |
| 20260901183004 | 86 | 0 | 0.0 | 0.0 | 0.00 | 0.31 | 0.00 | 60 | 929.0 |
| 20260901181504 | 86 | 0 | 0.0 | 0.0 | 0.00 | 0.31 | 0.00 | 61 | 928.9 |
| 20260901181004 | 85 | 0 | 0.0 | 0.0 | 0.00 | 0.31 | 0.00 | 57 | 929.9 |
| 20260901180504 | 85 | 0 | 0.0 | 0.0 | 0.00 | 0.31 | 0.00 | 60 | 928.9 |
| 20260901180003 | 84 | 0 | 0.0 | 0.0 | 0.00 | 0.31 | 0.00 | 60 | 929.6 |
| 20260901174504 | 84 | 0 | 0.0 | 0.0 | 0.00 | 0.31 | 0.00 | 63 | 928.7 |
| 20260901174004 | 84 | 0 | 0.0 | 0.0 | 0.00 | 0.31 | 0.00 | 61 | 929.3 |
| 20260901173503 | 84 | 0 | 0.0 | 0.0 | 0.00 | 0.31 | 0.00 | 63 | 928.3 |
| 20260901173005 | 84 | 0 | 0.0 | 0.0 | 0.00 | 0.31 | 0.00 | 62 | 929.2 |
| 20260901171506 | 83 | 0 | 0.0 | 0.0 | 0.00 | 0.31 | 0.00 | 66 | 928.0 |
| 20260901171006 | 84 | 0 | 0.0 | 0.0 | 0.00 | 0.31 | 0.00 | 64 | 928.2 |
| 20260901170506 | 84 | 0 | 0.0 | 0.0 | 0.00 | 0.31 | 0.00 | 63 | 928.6 |
| 20260901164505 | 82 | 0 | 0.0 | 0.0 | 0.00 | 0.31 | 0.00 | 69 | 926.3 |
| 20260901164005 | 82 | 0 | 0.0 | 0.0 | 0.00 | 0.31 | 0.00 | 72 | 925.3 |
| 20260901161506 | 81 | 0 | 0.0 | 0.0 | 0.00 | 0.31 | 0.00 | 73 | 925.3 |
| 20260901160005 | 81 | 0 | 0.0 | 0.0 | 0.00 | 0.31 | 0.00 | 73 | 925.6 |
| 20260901154005 | 82 | 0 | 0.0 | 0.0 | 0.00 | 0.31 | 0.00 | 70 | 926.1 |
| 20260901153505 | 83 | 0 | 0.0 | 0.0 | 0.00 | 0.31 | 0.00 | 70 | 925.8 |
| 20260901151505 | 81 | 0 | 0.0 | 0.0 | 0.00 | 0.31 | 0.00 | 72 | 925.6 |
| 20260901151005 | 80 | 0 | 0.0 | 0.0 | 0.00 | 0.31 | 0.00 | 75 | 925.1 |
| 20260901150505 | 81 | 0 | 0.0 | 0.0 | 0.00 | 0.31 | 0.00 | 71 | 927.1 |
| 20260901150005 | 81 | 0 | 0.0 | 0.0 | 0.00 | 0.31 | 0.00 | 74 | 925.8 |
| 20260901144005 | 80 | 0 | 0.0 | 0.0 | 0.00 | 0.31 | 0.00 | 78 | 924.9 |
| 20260901143505 | 79 | 0 | 0.0 | 0.0 | 0.00 | 0.31 | 0.00 | 80 | 924.2 |
| 20260901143005 | 79 | 0 | 0.0 | 0.0 | 0.00 | 0.31 | 0.00 | 80 | 923.8 |
| 20260901141504 | 77 | 0 | 0.0 | 0.0 | 0.00 | 0.31 | 0.00 | 83 | 923.5 |
| 20260901141005 | 76 | 0 | 0.0 | 0.0 | 0.00 | 0.31 | 0.00 | 85 | 923.1 |
| 20260901140505 | 75 | 0 | 0.0 | 0.0 | 0.00 | 0.31 | 0.00 | 89 | 923.0 |
| 20260901140005 | 74 | 0 | 0.0 | 0.0 | 0.00 | 0.31 | 0.00 | 88 | 923.0 |
| 20260901134505 | 73 | 0 | 0.0 | 0.0 | 0.00 | 0.31 | 0.00 | 92 | 923.6 |
| 20260901133505 | 72 | 0 | 0.0 | 0.0 | 0.00 | 0.31 | 0.00 | 96 | 925.0 |
| 20260901133005 | 71 | 0 | 0.0 | 0.0 | 0.00 | 0.31 | 0.00 | 96 | 925.5 |
| 20260901131505 | 70 | 0 | 0.0 | 0.0 | 0.00 | 0.31 | 0.00 | 96 | 924.9 |
| 20260901131005 | 70 | 0 | 0.0 | 0.0 | 0.00 | 0.31 | 0.00 | 96 | 924.8 |
| 20260901130505 | 68 | 0 | 0.0 | 0.0 | 0.00 | 0.31 | 0.00 | 96 | 924.7 |
| 20260901124505 | 64 | 0 | 0.0 | 0.0 | 0.00 | 0.31 | 0.00 | 95 | 924.2 |
| 20260901124004 | 63 | 0 | 0.0 | 0.0 | 0.00 | 0.31 | 0.00 | 95 | 924.1 |
| 20260901123504 | 63 | 0 | 0.0 | 0.0 | 0.00 | 0.31 | 0.00 | 95 | 924.0 |
| 20260901123005 | 62 | 0 | 0.0 | 0.0 | 0.00 | 0.31 | 0.00 | 95 | 924.0 |
| 20260901121505 | 61 | 0 | 0.0 | 0.0 | 0.00 | 0.31 | 0.00 | 95 | 923.8 |
| 20260901120505 | 60 | 0 | 0.0 | 0.0 | 0.00 | 0.31 | 0.00 | 95 | 923.6 |
| 20260901120005 | 60 | 0 | 0.0 | 0.0 | 0.00 | 0.31 | 0.00 | 95 | 923.6 |
| 20260901114505 | 59 | 0 | 0.0 | 0.0 | 0.00 | 0.31 | 0.00 | 95 | 923.5 |
| 20260901114004 | 59 | 0 | 0.0 | 0.0 | 0.00 | 0.31 | 0.00 | 95 | 923.4 |
| 20260901113504 | 59 | 0 | 0.0 | 0.0 | 0.00 | 0.31 | 0.00 | 95 | 923.3 |
| 20260901113005 | 59 | 0 | 0.0 | 0.0 | 0.00 | 0.31 | 0.00 | 95 | 923.3 |
| 20260901110504 | 59 | 0 | 0.0 | 0.0 | 0.00 | 0.31 | 0.00 | 95 | 923.1 |
| 20260901110004 | 59 | 0 | 0.0 | 0.0 | 0.00 | 0.31 | 0.00 | 95 | 923.0 |
| 20260901104004 | 59 | 0 | 0.0 | 0.0 | 0.00 | 0.31 | 0.00 | 95 | 922.7 |
| 20260901103505 | 60 | 0 | 0.0 | 0.0 | 0.00 | 0.31 | 0.00 | 95 | 922.7 |
| 20260901103006 | 60 | 0 | 0.0 | 0.0 | 0.00 | 0.31 | 0.00 | 95 | 922.7 |
| 20260901101504 | 60 | 0 | 0.0 | 0.0 | 0.00 | 0.31 | 0.00 | 95 | 922.6 |
| 20260901101004 | 60 | 0 | 0.0 | 0.0 | 0.00 | 0.31 | 0.00 | 95 | 922.6 |
| 20260901100505 | 60 | 0 | 0.0 | 0.0 | 0.00 | 0.31 | 0.00 | 95 | 922.6 |
| 20260901100005 | 60 | 0 | 0.0 | 0.0 | 0.00 | 0.31 | 0.00 | 95 | 922.6 |
| 20260901094504 | 60 | 0 | 0.0 | 0.0 | 0.00 | 0.31 | 0.00 | 95 | 922.5 |
| 20260901094004 | 60 | 0 | 0.0 | 0.0 | 0.00 | 0.31 | 0.00 | 95 | 922.5 |
| 20260901093504 | 60 | 0 | 0.0 | 0.0 | 0.00 | 0.31 | 0.00 | 95 | 922.5 |
| 20260901093004 | 60 | 0 | 0.0 | 0.0 | 0.00 | 0.31 | 0.00 | 95 | 922.5 |
| 20260901091504 | 60 | 0 | 0.0 | 0.0 | 0.00 | 0.31 | 0.00 | 95 | 922.4 |
| 20260901091004 | 60 | 0 | 0.0 | 0.0 | 0.00 | 0.31 | 0.00 | 95 | 922.4 |
| 20260901090504 | 60 | 0 | 0.0 | 0.0 | 0.00 | 0.31 | 0.00 | 95 | 922.4 |
| 20260901084504 | 61 | 0 | 0.0 | 0.0 | 0.00 | 0.31 | 0.00 | 95 | 922.6 |
| 20260901084004 | 61 | 0 | 0.0 | 0.0 | 0.00 | 0.31 | 0.00 | 95 | 922.6 |
| 20260901083503 | 61 | 0 | 0.0 | 0.0 | 0.00 | 0.31 | 0.00 | 95 | 922.5 |
| 20260901083004 | 61 | 0 | 0.0 | 0.0 | 0.00 | 0.31 | 0.00 | 95 | 922.5 |
| 20260901081505 | 61 | 0 | 0.0 | 0.0 | 0.00 | 0.31 | 0.00 | 95 | 922.5 |
| 20260901081006 | 61 | 0 | 0.0 | 0.0 | 0.00 | 0.31 | 0.00 | 95 | 922.6 |
| 20260901080506 | 61 | 0 | 0.0 | 0.0 | 0.00 | 0.31 | 0.00 | 95 | 922.6 |
| 20260901080006 | 61 | 0 | 0.0 | 0.0 | 0.00 | 0.31 | 0.00 | 95 | 922.6 |
| 20260901074506 | 61 | 0 | 0.0 | 0.0 | 0.00 | 0.31 | 0.00 | 95 | 922.6 |
| 20260901074005 | 61 | 0 | 0.0 | 0.0 | 0.00 | 0.31 | 0.00 | 95 | 922.6 |
| 20260901073005 | 62 | 0 | 0.0 | 0.0 | 0.00 | 0.31 | 0.00 | 95 | 922.6 |
| 20260901071005 | 62 | 0 | 0.0 | 0.0 | 0.00 | 0.31 | 0.00 | 95 | 922.8 |
| 20260901070505 | 62 | 0 | 0.0 | 0.0 | 0.00 | 0.31 | 0.00 | 95 | 922.8 |
| 20260901064505 | 62 | 0 | 0.0 | 0.0 | 0.00 | 0.31 | 0.00 | 95 | 922.9 |
| 20260901064006 | 62 | 0 | 0.0 | 0.0 | 0.00 | 0.31 | 0.00 | 95 | 922.9 |
| 20260901063505 | 62 | 0 | 0.0 | 0.0 | 0.00 | 0.31 | 0.00 | 95 | 923.0 |
| 20260901063005 | 62 | 0 | 0.0 | 0.0 | 0.00 | 0.31 | 0.00 | 95 | 923.0 |
| 20260901061505 | 62 | 0 | 0.0 | 0.0 | 0.00 | 0.31 | 0.00 | 95 | 923.0 |
| 20260901060006 | 63 | 0 | 0.0 | 0.0 | 0.00 | 0.31 | 0.00 | 95 | 923.1 |
| 20260901054505 | 63 | 0 | 0.0 | 0.0 | 0.00 | 0.31 | 0.00 | 95 | 923.2 |
| 20260901054005 | 63 | 0 | 0.0 | 0.0 | 0.00 | 0.31 | 0.00 | 95 | 923.2 |
| 20260901053505 | 64 | 0 | 0.0 | 0.0 | 0.00 | 0.31 | 0.00 | 95 | 923.2 |
| 20260901053005 | 64 | 0 | 0.0 | 0.0 | 0.00 | 0.31 | 0.00 | 95 | 923.3 |
| 20260901051505 | 64 | 0 | 0.0 | 0.0 | 0.00 | 0.31 | 0.00 | 95 | 923.4 |
| 20260901051005 | 64 | 0 | 0.0 | 0.0 | 0.00 | 0.31 | 0.00 | 95 | 923.4 |
| 20260901050505 | 64 | 0 | 0.0 | 0.0 | 0.00 | 0.31 | 0.00 | 95 | 923.4 |
| 20260901050005 | 64 | 0 | 0.0 | 0.0 | 0.00 | 0.31 | 0.00 | 95 | 923.3 |
| 20260901044507 | 64 | 0 | 0.0 | 0.0 | 0.00 | 0.31 | 0.00 | 95 | 923.4 |
| 20260901044005 | 64 | 0 | 0.0 | 0.0 | 0.00 | 0.31 | 0.00 | 95 | 923.4 |
| 20260901043505 | 65 | 0 | 0.0 | 0.0 | 0.00 | 0.31 | 0.00 | 95 | 923.4 |
| 20260901043004 | 65 | 0 | 0.0 | 0.0 | 0.00 | 0.31 | 0.00 | 95 | 923.5 |
| 20260901041505 | 65 | 0 | 0.0 | 0.0 | 0.00 | 0.31 | 0.00 | 95 | 923.4 |
| 20260901041010 | 65 | 0 | 0.0 | 0.0 | 0.00 | 0.31 | 0.00 | 95 | 923.5 |
| 20260901040505 | 65 | 0 | 0.0 | 0.0 | 0.00 | 0.31 | 0.00 | 95 | 923.5 |
| 20260901040005 | 65 | 0 | 0.0 | 0.0 | 0.00 | 0.31 | 0.00 | 95 | 923.5 |
| 20260901034005 | 65 | 0 | 0.0 | 0.0 | 0.00 | 0.31 | 0.28 | 95 | 923.6 |
| 20260901033504 | 65 | 0 | 0.0 | 0.0 | 0.00 | 0.31 | 0.28 | 95 | 923.6 |
| 20260901033005 | 65 | 0 | 0.0 | 0.0 | 0.00 | 0.31 | 0.28 | 95 | 923.6 |
| 20260901031005 | 65 | 0 | 0.0 | 0.0 | 0.00 | 0.31 | 0.28 | 95 | 923.6 |
| 20260901030504 | 65 | 0 | 0.0 | 0.0 | 0.00 | 0.31 | 0.28 | 95 | 923.6 |
| 20260901030004 | 65 | 0 | 0.0 | 0.0 | 0.00 | 0.31 | 0.28 | 95 | 923.6 |
| 20260901024505 | 66 | 0 | 0.0 | 0.0 | 0.00 | 0.31 | 0.28 | 95 | 923.6 |
| 20260901024005 | 66 | 0 | 0.0 | 0.0 | 0.00 | 0.31 | 0.28 | 95 | 923.6 |
| 20260901023504 | 66 | 0 | 0.0 | 0.0 | 0.00 | 0.31 | 0.28 | 95 | 923.6 |
| 20260901023004 | 66 | 0 | 0.0 | 0.0 | 0.00 | 0.31 | 0.28 | 95 | 923.7 |
| 20260901021504 | 66 | 0 | 0.0 | 0.0 | 0.00 | 0.31 | 0.28 | 95 | 923.7 |
| 20260901021005 | 66 | 0 | 0.0 | 0.0 | 0.00 | 0.31 | 0.28 | 95 | 923.7 |
| 20260901020505 | 66 | 0 | 0.0 | 0.0 | 0.00 | 0.31 | 0.28 | 95 | 923.7 |
| 20260901020004 | 66 | 0 | 0.0 | 0.0 | 0.00 | 0.31 | 0.28 | 95 | 923.7 |
| 20260901014504 | 66 | 0 | 0.0 | 0.0 | 0.00 | 0.31 | 0.28 | 95 | 923.6 |
| 20260901014004 | 67 | 0 | 0.0 | 0.0 | 0.00 | 0.31 | 0.28 | 95 | 923.6 |
| 20260901013504 | 67 | 0 | 0.0 | 0.0 | 0.00 | 0.31 | 0.28 | 95 | 923.5 |
| 20260901013005 | 67 | 0 | 0.0 | 0.0 | 0.00 | 0.31 | 0.28 | 94 | 923.5 |
| 20260901011505 | 68 | 0 | 0.0 | 0.0 | 0.00 | 0.31 | 0.28 | 94 | 923.5 |
| 20260901011004 | 68 | 0 | 0.0 | 0.0 | 0.00 | 0.31 | 0.28 | 95 | 923.5 |
| 20260901010504 | 68 | 0 | 0.0 | 0.0 | 0.00 | 0.31 | 0.28 | 94 | 923.5 |
| 20260901010004 | 68 | 0 | 0.0 | 0.0 | 0.00 | 0.31 | 0.28 | 95 | 923.5 |
| 20260901004504 | 69 | 0 | 0.0 | 0.0 | 0.00 | 0.31 | 0.28 | 93 | 923.4 |
| 20260901004004 | 69 | 0 | 0.0 | 0.0 | 0.00 | 0.31 | 0.28 | 93 | 923.4 |
| 20260901003504 | 69 | 0 | 0.0 | 0.0 | 0.00 | 0.31 | 0.28 | 93 | 923.4 |
| 20260901003005 | 69 | 0 | 0.0 | 0.0 | 0.00 | 0.31 | 0.28 | 93 | 923.5 |
| 20260901001504 | 71 | 0 | 0.0 | 0.0 | 0.00 | 0.31 | 0.28 | 92 | 923.5 |
| 20260901001004 | 71 | 0 | 0.0 | 0.0 | 0.00 | 0.31 | 0.28 | 92 | 923.5 |
| 20260901000504 | 71 | 0 | 0.0 | 0.0 | 0.00 | 0.31 | 0.28 | 91 | 923.5 |
| 20260901000004 | 72 | 0 | 0.0 | 0.0 | 0.00 | 0.31 | 0.28 | 91 | 923.6 |
| 20260831234504 | 73 | 0 | 0.0 | 0.0 | 0.00 | 0.31 | 0.28 | 90 | 923.5 |
| 20260831233503 | 74 | 0 | 0.0 | 0.0 | 0.00 | 0.31 | 0.28 | 89 | 923.4 |
| 20260831231506 | 76 | 0 | 0.0 | 0.0 | 0.00 | 0.31 | 0.28 | 86 | 923.2 |
| 20260831231006 | 77 | 0 | 0.0 | 0.0 | 0.00 | 0.31 | 0.28 | 85 | 923.2 |
| 20260831230505 | 78 | 0 | 0.0 | 0.0 | 0.00 | 0.31 | 0.28 | 84 | 923.2 |
| 20260831230005 | 79 | 0 | 0.0 | 0.0 | 0.00 | 0.31 | 0.28 | 82 | 923.3 |